Regional Weather Roundup
Issued by NWS

Current Version | Previous Version | Text Only | Print | Product List | Glossary On
Versions: 1 2 3 4 5 6 7 8 9 10 11 12 13 14 15 16 17 18 19 20 21 22 23 24 25 26 27 28 29 30 31 32 33 34 35 36 37 38 39 40 41 42 43 44 45 46 47 48 49 50
000
ASUS44 KBMX 260310
RWRAL

ALABAMA REGIONAL WEATHER ROUNDUP
NATIONAL WEATHER SERVICE BIRMINGHAM AL
900 PM CST SAT FEB 25 2017

NOTE: "FAIR" INDICATES FEW OR NO CLOUDS BELOW 12,000 FEET
WITH NO SIGNIFICANT WEATHER AND/OR OBSTRUCTIONS TO VISIBILITY.

THE REMARK "TC" DENOTES TEMPERATURE IN DEGREES CELSIUS.

ALZ001>011-014-016>018-020-260400-
NORTH ALABAMA

CITY           SKY/WX    TMP DP  RH WIND       PRES   REMARKS
MUSCLE SHOALS  CLEAR     40  20  44 N9        30.17R WCI  34
HUNTSVILLE     CLEAR     42  24  49 NW8       30.13R
DECATUR        CLEAR     40  24  53 NW12      30.14R WCI  33
HALEYVILLE     FAIR      38  21  50 NW8       30.15R WCI  32
GADSDEN        CLEAR     44  22  41 W6        30.11R
$$

ALZ012-013-022-023-030>036-040>044-260400-
WEST CENTRAL ALABAMA

CITY           SKY/WX    TMP DP  RH WIND       PRES   REMARKS
TUSCALOOSA     CLEAR     45  25  45 NW6       30.14R
$$

ALZ015-024>027-033>036-040>044-260400-
CENTRAL ALABAMA

CITY           SKY/WX    TMP DP  RH WIND       PRES   REMARKS
BIRMINGHAM     CLEAR     46  22  38 NW6       30.14R
MONTGOMERY     CLEAR     50  24  36 NW9       30.11R
SHELBY CO ARPT CLEAR     47  25  42 NW8       30.11R
MAXWELL AFB    CLEAR     50  24  35 NW10      30.09R
GREENVILLE     FAIR      51  24  34 NW10      30.10R
$$

ALZ019-021-028-029-037-038-045>048-260400-
EAST CENTRAL ALABAMA

CITY           SKY/WX    TMP DP  RH WIND       PRES   REMARKS
ANNISTON       CLEAR     48  19  31 N5        30.10R
ALEXANDER CITY CLEAR     47  23  39 CALM      30.09R
AUBURN         CLEAR     49  22  34 NW8       30.07R
$$

ALZ051>064-260400-
SOUTHWEST ALABAMA

CITY           SKY/WX    TMP DP  RH WIND       PRES   REMARKS
MOBILE         CLEAR     54  30  40 N12       30.11R
BROOKLEY FIELD CLEAR     57  32  38 NW13      30.12R
EVERGREEN      PTCLDY    50  29  44 CALM      30.11R
$$

ALZ049-050-065>069-260400-
SOUTHEAST ALABAMA

CITY           SKY/WX    TMP DP  RH WIND       PRES   REMARKS
DOTHAN         CLEAR     54  28  36 NW9       30.10R
OZARK          CLEAR     54  26  33 NW7       30.07R
TROY           CLEAR     48  30  49 NW6       30.09R
EUFAULA        FAIR      55  24  30 NW6       30.05R
$$



USA.gov is the U.S. government's official web portal to all federal, state and local government web resources and services.